Printer-friendly version

IAU Minor Planet Center

Minor Planet Center

C/2006 S5 (Hill)

Orbital Elements

The following orbital elements are taken from MPC 60465:
C/2006 S5 (Hill)
Epoch 2007 Dec. 6.0 TT = JDT 2454440.5
T 2007 Dec.  9.7492 TT                                  MPC
q   2.630424             (2000.0)            P               Q
z  +0.010261       Peri.  182.1093      -0.2358058      -0.9563972
 +/-0.000008       Node   281.5630      +0.8941648      -0.1440733
e   0.973010       Incl.   10.1314      +0.3806113      -0.2540616
From 191 observations 2006 Sept. 14-2007 Aug. 13, mean residual 0".6.
Elements are also available for the current standard epoch:
C/2006 S5 (Hill)
Epoch 2009 June 18.0 TT = JDT 2455000.5
T 2007 Dec.  9.6103 TT                                  MPC
q   2.628853             (2000.0)            P               Q
z  +0.010454       Peri.  182.0708      -0.2348610      -0.9566284
 +/-0.000008       Node   281.5451      +0.8943284      -0.1432014
e   0.972517       Incl.   10.1312      +0.3808109      -0.2536838
An explanation of the orbital elements is available.

These orbital elements are also available in forms suitable for loading into a number of popular planetarium-type software programs.


Ephemeris

The following ephemeris is at intervals of five days. A daily ephemeris covering the same time interval is also available.

Personalized ephemerides for this (and other) objects may be generated using the Minor Planet & Comet Ephemeris Service.

Recent magnitude estimates for this comet (as reported to the ICQ) may be available.

Date    TT    R. A. (2000) Decl.     Delta      r     Elong.  Phase   m1    m2

WARNING!

This comet gets close to the sun during the period covered in the ephemeris below. Observers are warned to be wary of observing comets near the sun. NEVER point any kind of optical instrument at the sun--instant blindness will be the probable result.

2009 06 08 12 20.56 -14 08.1 5.312 5.780 112.7 9.3 19.2 2009 06 13 12 21.18 -14 01.5 5.420 5.816 108.1 9.6 19.3 2009 06 18 12 22.04 -13 56.5 5.530 5.853 103.6 9.7 19.4 2009 06 23 12 23.14 -13 53.3 5.642 5.889 99.2 9.8 19.5 2009 06 28 12 24.47 -13 51.8 5.754 5.926 94.8 9.8 19.5 2009 07 03 12 26.00 -13 51.9 5.868 5.962 90.4 9.8 19.6 2009 07 08 12 27.74 -13 53.7 5.981 5.999 86.1 9.7 19.7 2009 07 13 12 29.66 -13 56.9 6.094 6.035 81.9 9.6 19.7 2009 07 18 12 31.76 -14 01.6 6.207 6.071 77.7 9.4 19.8 2009 07 23 12 34.02 -14 07.7 6.318 6.108 73.5 9.2 19.9 2009 07 28 12 36.42 -14 15.2 6.428 6.144 69.4 8.9 19.9 2009 08 02 12 38.97 -14 23.9 6.535 6.180 65.3 8.6 20.0 2009 08 07 12 41.64 -14 33.8 6.641 6.216 61.2 8.2 20.0 2009 08 12 12 44.43 -14 44.8 6.743 6.252 57.2 7.8 20.1 2009 08 17 12 47.32 -14 56.8 6.843 6.289 53.2 7.4 20.2 2009 08 22 12 50.31 -15 09.8 6.939 6.325 49.2 7.0 20.2 2009 08 27 12 53.38 -15 23.6 7.032 6.361 45.2 6.5 20.3 2009 09 01 12 56.53 -15 38.3 7.120 6.397 41.3 6.0 20.3 2009 09 06 12 59.74 -15 53.7 7.205 6.433 37.4 5.5 20.4 2009 09 11 13 03.00 -16 09.7 7.284 6.469 33.5 4.9 20.4 2009 09 16 13 06.31 -16 26.3 7.360 6.505 29.6 4.4 20.5 2009 09 21 13 09.65 -16 43.4 7.430 6.541 25.8 3.8 20.5 2009 09 26 13 13.02 -17 01.0 7.495 6.577 22.1 3.3 20.6 2009 10 01 13 16.41 -17 18.9 7.555 6.612 18.4 2.7 20.6 2009 10 06 13 19.81 -17 37.2 7.609 6.648 14.9 2.2 20.6 2009 10 11 13 23.20 -17 55.7 7.658 6.684 11.8 1.8 20.7 2009 10 16 13 26.59 -18 14.3 7.701 6.720 9.5 1.4 20.7 2009 10 21 13 29.95 -18 33.2 7.738 6.755 8.5 1.2 20.7 2009 10 26 13 33.29 -18 52.0 7.770 6.791 9.4 1.4 20.8 2009 10 31 13 36.58 -19 10.9 7.795 6.827 11.8 1.7 20.8 2009 11 05 13 39.82 -19 29.7 7.815 6.862 15.0 2.1 20.8 2009 11 10 13 43.01 -19 48.5 7.829 6.898 18.6 2.6 20.9 2009 11 15 13 46.12 -20 07.0 7.838 6.933 22.4 3.1 20.9 2009 11 20 13 49.15 -20 25.4 7.840 6.969 26.4 3.6 20.9 2009 11 25 13 52.09 -20 43.5 7.837 7.004 30.5 4.1 20.9 2009 11 30 13 54.93 -21 01.2 7.829 7.039 34.6 4.6 20.9 2009 12 05 13 57.64 -21 18.6 7.815 7.075 38.9 5.0 21.0 2009 12 10 14 00.24 -21 35.5 7.797 7.110 43.2 5.4 21.0 2009 12 15 14 02.69 -21 51.9 7.773 7.145 47.5 5.8 21.0 2009 12 20 14 05.00 -22 07.8 7.746 7.181 51.9 6.2 21.0 2009 12 25 14 07.14 -22 23.1 7.714 7.216 56.4 6.5 21.0 2009 12 30 14 09.11 -22 37.8 7.678 7.251 60.9 6.8 21.0 2010 01 04 14 10.90 -22 51.7 7.640 7.286 65.4 7.1 21.0 2010 01 09 14 12.50 -23 04.9 7.598 7.321 70.0 7.3 21.0 2010 01 14 14 13.89 -23 17.3 7.554 7.356 74.7 7.4 21.1 2010 01 19 14 15.06 -23 28.8 7.508 7.391 79.4 7.5 21.1 2010 01 24 14 16.02 -23 39.3 7.461 7.426 84.2 7.6 21.1 2010 01 29 14 16.74 -23 48.8 7.414 7.461 89.0 7.6 21.1 2010 02 03 14 17.24 -23 57.3 7.366 7.496 93.8 7.5 21.1 2010 02 08 14 17.50 -24 04.7 7.318 7.531 98.7 7.4 21.1 2010 02 13 14 17.52 -24 10.9 7.271 7.565 103.6 7.3 21.1 2010 02 18 14 17.30 -24 15.8 7.226 7.600 108.6 7.1 21.1 2010 02 23 14 16.85 -24 19.5 7.184 7.635 113.7 6.8 21.1 2010 02 28 14 16.17 -24 21.9 7.144 7.670 118.7 6.5 21.1 2010 03 05 14 15.27 -24 22.9 7.108 7.704 123.8 6.1 21.1 2010 03 10 14 14.17 -24 22.6 7.076 7.739 128.9 5.7 21.1 2010 03 15 14 12.87 -24 20.8 7.049 7.773 134.0 5.3 21.1 2010 03 20 14 11.40 -24 17.8 7.027 7.808 139.1 4.8 21.2 2010 03 25 14 09.77 -24 13.3 7.011 7.842 144.2 4.3 21.2 2010 03 30 14 08.01 -24 07.6 7.002 7.877 149.3 3.7 21.2 2010 04 04 14 06.15 -24 00.6 6.999 7.911 154.2 3.2 21.2 2010 04 09 14 04.20 -23 52.5 7.002 7.945 159.0 2.6 21.2 2010 04 14 14 02.21 -23 43.3 7.013 7.980 163.4 2.1 21.2 2010 04 19 14 00.18 -23 33.1 7.032 8.014 167.1 1.6 21.3 2010 04 24 13 58.16 -23 22.2 7.058 8.048 169.2 1.3 21.3 2010 04 29 13 56.18 -23 10.6 7.092 8.082 168.9 1.4 21.3 2010 05 04 13 54.24 -22 58.5 7.133 8.116 166.4 1.7 21.4 2010 05 09 13 52.39 -22 46.1 7.182 8.150 162.6 2.1 21.4 2010 05 14 13 50.65 -22 33.5 7.238 8.184 158.2 2.6 21.4 2010 05 19 13 49.02 -22 20.8 7.301 8.219 153.5 3.1 21.5 2010 05 24 13 47.54 -22 08.4 7.370 8.252 148.7 3.7 21.5 2010 05 29 13 46.22 -21 56.3 7.447 8.286 143.8 4.1 21.5 2010 06 03 13 45.07 -21 44.6 7.529 8.320 138.9 4.6 21.6 2010 06 08 13 44.09 -21 33.5 7.616 8.354 134.1 5.0 21.6 2010 06 13 13 43.30 -21 23.1 7.709 8.388 129.2 5.4 21.7 2010 06 18 13 42.70 -21 13.5 7.806 8.422 124.4 5.7 21.7 2010 06 23 13 42.30 -21 04.7 7.908 8.455 119.6 6.0 21.8 2010 06 28 13 42.09 -20 57.0 8.012 8.489 114.8 6.2 21.8 2010 07 03 13 42.07 -20 50.2 8.120 8.523 110.1 6.4 21.9 2010 07 08 13 42.25 -20 44.4 8.230 8.556 105.4 6.6 21.9 2010 07 13 13 42.61 -20 39.7 8.342 8.590 100.7 6.7 21.9

Back to Observable Comets


Valid HTML 4.01!